Location: ASU Dark Sky Observatory
(36.2504°N, 81.4125°W)
Time: 20:36:43
(UTC-04:00)

Daily predictions for brighter satellites

Satellite Brightness Start Highest point End
(mag) Time Altitude Azimuth Time Altitude Azimuth Time Altitude Azimuth
Meteor 1-13 Rocket 4.3 20:54:43 10° S 21:00:32 78° E 21:06:16 10° NNE
Lacrosse 5 4.4 20:56:57 10° W 21:01:12 26° NW 21:05:27 10° NNE
OTV 4 1.9 21:02:58 10° W 21:05:32 26° SSW 21:08:05 10° SSE
Cosmos 1743 3.1 21:04:50 10° N 21:08:31 43° E 21:12:10 10° SSE
Cosmos 1726 Rocket 3.9 21:07:42 10° N 21:11:59 46° E 21:16:14 10° SSE
Cosmos 2233 Rocket 4.0 21:05:51 10° N 21:12:08 86° E 21:18:19 10° S
Cosmos 158 Rocket 4.1 21:08:16 10° SSW 21:13:17 79° WNW 21:18:30 10° NNE
ALOS 2.3 21:08:49 10° SSE 21:13:29 90° ESE 21:18:11 10° NNW
Okean 2 4.0 21:10:27 10° SSE 21:14:19 37° E 21:18:12 10° NNE
SeaSat 1 3.9 21:10:49 10° ESE 21:14:43 24° NE 21:18:37 10° N
CZ-3C R/B 4.0 21:09:53 10° SW 21:18:17 16° SSW 21:21:53 10° SSE
YAOGAN 11 4.1 21:16:11 10° SSE 21:20:34 83° ENE 21:24:54 10° N
Cosmos 1464 Rocket 4.4 21:14:48 10° N 21:20:38 44° E 21:26:28 10° SSE
Cosmos 2058 Rocket 3.4 21:18:46 10° N 21:23:00 46° E 21:27:10 10° SSE
Meteor 1-19 Rocket 4.2 21:17:59 10° S 21:23:38 85° E 21:29:14 10° N
Cosmos 2098 Rocket 3.4 21:20:27 10° NNW 21:23:47 54° W 21:27:53 10° S
Meteor 2-4 Rocket 3.9 21:19:29 10° S 21:25:13 64° E 21:31:05 10° NNE
Cosmos 2333 Rocket 4.0 21:23:22 10° SW 21:28:30 35° WNW 21:33:40 10° N
Cosmos 2251 Rocket 3.9 21:24:10 10° SSW 21:29:26 69° WNW 21:34:47 10° NNE
ATLAS 3B R/B 4.3 21:29:52 13° SE 21:33:03 16° ESE 21:37:23 10° ENE
deb Chang Zheng 4 3.5 21:29:10 10° NNE 21:33:36 81° ESE 21:37:57 10° S
Cosmos 2297 3.7 21:28:13 10° NNW 21:33:56 74° ENE 21:39:04 13° SSE
Milstar 3 Cent rocket 3.4 21:28:35 10° W 21:35:47 33° SSW 21:39:27 15° SE
PSLV R/B 4.5 21:37:02 19° ESE 21:38:19 25° ENE 21:40:55 10° NNE
CZ-2C R/B 0.9 21:36:24 13° S 21:38:22 56° WSW 21:40:40 10° NNW
Cosmos 2034 Rocket 4.4 21:32:26 10° N 21:38:33 47° E 21:43:36 15° SSE
H-2A R/B 3.9 21:35:34 10° S 21:39:18 43° W 21:43:06 10° NNW
ERS-1 Rocket 3.0 21:37:20 10° SSE 21:42:21 86° WSW 21:47:24 10° NNW
Envisat 3.3 21:39:38 16° SE 21:43:31 49° ENE 21:48:24 10° N
BREEZE-M DEB (TANK) 2.7 21:37:47 10° SW 21:44:19 87° SE 21:46:47 10° NE
OAO 3 Copernicus 4.3 21:42:05 10° W 21:47:08 74° S 21:50:52 18° ESE
Cosmos 1606 Rocket 4.3 21:43:27 10° NNW 21:47:47 53° W 21:52:03 10° S
Cosmos 1110 Rocket 4.1 21:42:38 10° NNW 21:47:56 77° WSW 21:52:38 13° S
USA 234 4.0 21:43:14 12° ESE 21:48:49 42° NE 21:54:56 10° NNW
YAOGAN 6 4.2 21:50:25 18° E 21:51:29 21° ENE 21:54:18 10° NNE
H-2A R/B 2.1 21:48:20 13° S 21:52:08 76° WSW 21:56:27 10° NNW
Cosmos 1626 Rocket 3.5 21:57:47 15° S 22:01:28 69° E 22:05:52 10° NNE
Abrixas rocket 3.1 21:58:54 10° NW 22:02:11 42° NNE 22:03:38 26° E
Atlas Centaur 2 3.3 22:04:51 10° SW 22:12:10 46° SSE 22:18:15 18° E
Cosmos 2278 Rocket 4.2 22:10:30 10° NW 22:14:53 23° W 22:19:14 10° SSW
Meteor 1-15 Rocket 4.5 22:12:20 10° NNW 22:17:53 68° W 22:22:13 17° S
Cosmos 2228 3.5 22:14:18 10° NNW 22:18:38 59° W 22:21:31 20° SSW
Aureole 2 Rocket 4.2 22:16:38 10° SW 22:20:24 37° WNW 22:23:52 10° N
H-2A R/B 3.6 22:19:20 17° E 22:20:30 19° ENE 22:23:53 10° NNE
PSLV R/B 3.3 22:17:05 10° WSW 22:20:38 82° NNW 22:22:27 27° ENE
Cosmos 1939 Rocket 3.8 22:18:34 18° SSW 22:21:21 46° W 22:25:22 10° NNW
COSMOS 2455 2.8 22:15:40 10° SSW 22:21:34 65° ESE 22:27:32 10° NNE
CZ-4 R/B 4.0 22:20:42 10° NNE 22:25:36 54° E 22:27:22 36° SSE
SPOT 1/Viking Rocket 3.6 22:26:44 36° SE 22:28:41 63° ENE 22:33:47 10° N
SPOT 5 2.9 22:26:56 28° S 22:29:10 62° WSW 22:33:30 10° NNW
Cosmos 2369 Rocket 3.4 22:24:45 10° N 22:29:31 27° ENE 22:31:20 23° E
ARGOS 3.4 22:29:23 36° SE 22:31:16 52° ENE 22:36:32 10° N
SL-16 R/B 4.4 22:27:25 10° WSW 22:32:08 27° WNW 22:36:52 10° N
Cosmos 1666 4.1 22:29:05 10° NNW 22:32:41 36° W 22:34:49 20° SW
Cosmos 1190 Rocket 4.4 22:37:26 41° ESE 22:38:00 43° ESE 22:43:00 10° NNE
NOAA 11 4.3 22:37:27 40° SE 22:39:05 56° ENE 22:44:24 10° N
Geosat 3.9 22:35:12 10° NNE 22:40:12 65° ESE 22:42:04 38° S
Tsikada Rocket 4.4 22:34:04 10° SSW 22:40:24 64° W 22:46:46 10° N
DEBRIS 3.1 22:42:32 10° WNW 22:45:19 41° W 22:45:19 41° W
SeaSat 1 3.3 22:50:09 30° SSW 22:51:59 41° WSW 22:56:38 10° NW
Cosmos 1758 Rocket 4.2 22:53:08 42° ENE 22:53:08 42° ENE 22:56:44 10° NNE
Lacrosse 4 Rocket 3.2 22:55:02 19° NE 22:55:02 19° NE 22:56:28 10° NE
SL-08 RB Rocket 3.5 22:55:15 68° SE 22:55:43 77° ENE 23:00:16 10° N
Terra 2.5 22:56:20 37° ENE 22:56:30 37° ENE 23:00:52 10° N
CARTOSAT-1 4.4 22:57:34 37° ENE 22:57:34 37° ENE 23:01:19 10° N
Cosmos 1066 Rocket 4.1 22:57:30 45° S 22:59:22 86° E 23:05:10 10° N
Cosmos 1515 4.3 22:58:52 46° WSW 22:59:26 51° W 23:03:13 10° N
CZ-4B R/B 4.5 22:54:36 10° N 22:59:26 46° WNW 23:03:35 14° SW
Cosmos 1346 Rocket 3.3 23:03:05 50° NNE 23:03:05 50° NNE 23:06:06 10° NNE
Cosmos 1825 Rocket 3.9 23:10:25 53° WSW 23:11:04 60° W 23:15:27 10° N
Cosmos 1461 4.0 23:07:24 10° NW 23:11:08 35° WSW 23:11:08 35° WSW
Cosmos 2142 Rocket 4.4 23:07:40 10° N 23:14:00 84° W 23:15:38 52° S
Meteor 1-21 4.1 23:19:01 68° SE 23:19:37 75° E 23:25:25 10° NNE
ATLAS 3B R/B 2.9 23:16:52 18° SSW 23:22:53 90° W 23:30:31 10° NNE
Cosmos 1943 3.6 23:23:34 31° SW 23:26:12 60° WNW 23:31:50 10° NNE
Cosmos 1634 Rocket 4.2 23:20:12 10° NNW 23:26:17 63° W 23:27:54 47° SSW
Cosmos 407 Rocket 3.4 23:27:23 73° SW 23:27:50 81° WNW 23:33:06 10° NNE
USA 234 3.5 23:30:35 49° SSW 23:31:39 54° SW 23:38:04 10° NW
Cosmos 1943 Rocket 2.9 23:37:02 10° N 23:42:15 41° ENE 23:42:15 41° ENE
Cosmos 1954 Rocket 4.2 23:47:02 68° NNE 23:47:02 68° NNE 23:51:41 10° NNE
Cosmos 2279 Rocket 4.0 23:45:52 10° NNW 23:52:04 69° W 23:52:42 64° SW
